AirNav  
 
 1536 users online  

CL14 Huntington Memorial Hospital Heliport
Pasadena, California, USA

GOING TO PASADENA?


FAA INFORMATION EFFECTIVE 04 JANUARY 2018

Location

FAA Identifier: CL14
Lat/Long: 34-08-01.1280N / 118-09-13.2570W
34-08.018800N / 118-09.220950W
34.1336467 / -118.1536825
(estimated)
Elevation: 854 ft. / 260 m (estimated)
Variation: 14E (1985)
Time zone: UTC -8 (UTC -7 during Daylight Saving Time)
Zip code: 91105

Heliport Operations

Heliport use: Private use, MEDICAL USE.
Activation date: 01/1984
Control tower: no
ARTCC: LOS ANGELES CENTER
FSS: HAWTHORNE FLIGHT SERVICE STATION
Attendance: CONTINUOUS
Wind indicator: lighted
Segmented circle: no
Lights: ACTVT PERIMETER LGTS RY H2 - 123.05.
Beacon: white-green-yellow (heliport)
ACTVT ROTG BCN AND LGTD WINDCONE - 123.05.

Heliport Communications

UNICOM: 123.05
WX AWOS-3PT at EMT (7 nm SE): 118.75 ((626) 444-1107)
WX ASOS at BUR (11 nm W): PHONE 818-841-1384
WX AWOS-3PT at WHP (15 nm NW): 132.1 (818-899-9820)
WX AWOS-3PT at CPM (15 nm S): 127.150 (310-631-4958)
WX ASOS at HHR (16 nm SW): PHONE 310-973-8930
WX ASOS at SMO (16 nm SW): PHONE 310-392-6453
WX ASOS at LAX (17 nm SW): PHONE 310-568-1486
WX ASOS at VNY (17 nm W): PHONE 818-904-9213
WX ASOS at FUL (18 nm SE): PHONE 714-870-1372
WX AWOS-3PT at POC (19 nm E): 124.4 (909-596-1523)
WX ASOS at LGB (19 nm S): PHONE 562-424-0572

Nearby radio navigation aids

VOR radial/distance  VOR name  Freq  Var
SMOr049/16.8SANTA MONICA VOR/DME110.8015E
VNYr093/17.6VAN NUYS VOR/DME113.1015E
LAXr034/18.3LOS ANGELES VORTAC113.6015E
POMr265/18.5POMONA VORTAC110.4015E
SLIr332/21.6SEAL BEACH VORTAC115.7015E
PMDr173/30.2PALMDALE VORTAC114.5015E
PDZr278/33.6PARADISE VORTAC112.2015E
ELBr309/34.6EL TORO VOR/DME117.2014E
RALr273/(36.6)RIVERSIDE VOR112.4014E
FIMr095/38.5FILLMORE VORTAC112.5015E
LHSr133/39.1LAKE HUGHES VORTAC108.4015E

 
NDB name  Hdg/Dist  Freq  Var  ID
EL MONTE279/6.735915EEMT . -- -

Heliport Services

Runway Information

Helipad H1

Dimensions: 50 x 50 ft. / 15 x 15 m
Surface: concrete
ROOFTOP HELIPAD OTS AND MARKED WITH YELLOW X. RY H1 CAN BE USED DURG EXTREME EMERGENCY CONDITIONS.
Operational restrictions: INGRESS/EGRESS ROUTES N & S.
Latitude: 34-08.018800N
Longitude: 118-09.220950W
Elevation: 854.0 ft.
Traffic pattern: leftleft

Helipad H2

Dimensions: 40 x 40 ft. / 12 x 12 m
Surface: concrete
Runway edge lights: PERI
Operational restrictions: ROOFTOP HELIPAD.
Traffic pattern: leftleft

Heliport Ownership and Management from official FAA records

Ownership: Privately-owned
Owner: PASADENA MEMORIAL HOSPITAL
100 W. CALIFORNIA BLVD
PASADENA, CA 91109-7013
Phone 626-397-5000
Manager: THOMAS ROMEYN
100 W. CALIFORNIA BLVD.
PASADENA, CA 91105
Phone 626-397-5230

Instrument Procedures

There are no published instrument procedures at CL14.

Some nearby airports with instrument procedures:

KEMT - San Gabriel Valley Airport (7 nm SE)
KBUR - Bob Hope Airport (11 nm W)
KWHP - Whiteman Airport (15 nm NW)
KHHR - Jack Northrop Field/Hawthorne Municipal Airport (16 nm SW)
KSMO - Santa Monica Municipal Airport (16 nm SW)
KLAX - Los Angeles International Airport (17 nm SW)
KVNY - Van Nuys Airport (17 nm W)
KFUL - Fullerton Municipal Airport (18 nm SE)
KPOC - Brackett Field Airport (19 nm E)
KLGB - Long Beach Airport (Daugherty Field) (19 nm S)
 
Loc | Ops | Rwys | IFR | FBO | Links
Com | Nav | Svcs | Stats | Notes

San Bernardino International Airport Authority
 
Area around CL14 (Huntington Memorial Hospital Heliport)
 
Road maps at: MapQuest Bing Google
 
Aerial photo
No photo
 
Sectional chart

 
Airport distance calculator
Flying to Huntington Memorial Hospital Heliport? Find the distance to fly.

From to CL14

Sunrise and sunset
Times for 22-Jan-2018
 Local
(UTC-8)
 Zulu
(UTC)
Morning civil twilight06:3014:30
Sunrise06:5714:57
Sunset17:1201:12
Evening civil twilight17:3901:39

Current date and time
Zulu (UTC)  22-Jan-2018 17:36:14
Local (UTC-8)  22-Jan-2018 09:36:14
 
METAR
KCQT 
6nm SW 
221647Z AUTO 00000KT 10SM CLR 13/M04 A3026 RMK AO2 SLP246 T01331044
KEMT 
8nm SE 
221645Z 00000KT 10SM CLR 09/M02 A3028
KBUR 
11nm W 
221653Z 16003KT 10SM CLR 11/M03 A3026 RMK AO2 SLP240 T01111033
KWHP 
15nm NW 
221656Z 00000KT 10SM SKC 15/M07 A3030
KHHR 
16nm SW 
221653Z 00000KT 10SM CLR 14/M03 A3027 RMK AO2 SLP250 T01391028 $
KSMO 
16nm SW 
221651Z 17003KT 10SM CLR 13/M02 A3027 RMK AO2 SLP248 T01331022
KLAX 
17nm SW 
221653Z 06004KT 10SM FEW045 FEW160 14/M04 A3027 RMK AO2 SLP248 T01441039
KVNY 
17nm W 
221651Z 34008KT 10SM CLR 14/M06 A3026 RMK AO2 SLP243 T01441061
KFUL 
18nm SE 
221653Z 07003KT 10SM FEW200 12/M01 A3026 RMK AO2 SLP245 T01171011
KLGB 
19nm S 
221653Z 00000KT 10SM CLR 12/01 A3027 RMK AO2 SLP248 T01220006
TAF
KBUR 
11nm W 
221123Z 2212/2312 VRB03KT P6SM BKN150
KSMO 
16nm SW 
221123Z 2212/2312 VRB03KT P6SM BKN200 FM222000 23008KT P6SM SCT250 FM230200 VRB03KT P6SM SKC
KLAX 
17nm SW 
221455Z 2215/2318 06007KT P6SM SCT150 FM222000 27008KT P6SM SCT250 FM230400 VRB03KT P6SM FEW250
KVNY 
17nm W 
221501Z 2215/2312 32010KT P6SM BKN200 FM222000 35005KT P6SM BKN150 FM230300 VRB03KT P6SM SCT250
KLGB 
19nm S 
221123Z 2212/2312 VRB03KT P6SM BKN150 FM222300 30008KT P6SM SCT250 FM230300 VRB03KT P6SM FEW250
NOTAMs
Click for the latest NOTAMs
NOTAMs are issued by the DoD/FAA and will open in a separate window not controlled by AirNav.

 

 
 

Would you like to see your business listed on this page?

 If your business provides an interesting product or service to pilots, flight crews, aircraft, or users of the Huntington Memorial Hospital Heliport, you should consider listing it here.  To start the listing process, click on the button below
 
Add a business
 

Other Pages about Huntington Memorial Hospital Heliport

Update a link
 
Copyright © AirNav, LLC. All rights reserved. Privacy Policy  Contact